User: anonymous   Login
Location: Fort Wayne
(41.1310°N, 85.1290°W)
Time: 10:37:43
(UTC-04:00)
Language:

Iridium 37 - Orbit

View from above orbital plane
View from above orbital plane
View from above satellite
View from above satellite

Ground track
Ground track

The orbit data is extracted from the following two-line orbital elements,

1 24968U 97056D   18114.99495254  .00474140 -13934-5  82668-3 0  9997
2 24968  86.3652 179.9359 0202935 153.9266 207.2405 15.74375236 78364
Epoch (UTC): 24 April 2018 23:52:43
Eccentricity: 0.0202935
inclination: 86.3652°
perigee height: 210 km
apogee height: 483 km
right ascension of ascending node: 179.9359°
argument of perigee: 153.9266°
revolutions per day: 15.74375236
mean anomaly at epoch: 207.2405°
orbit number at epoch: 7836

The dashed part of the orbit path shows where the satellite is in the earth's shadow,  

DLR